User: anonymous   Login
Location: Unspecified
(0.0000°N, 0.0000°E)
Time: 08:43:42
(UTC+00:00)
Language:

ETS 8 - Orbit

View from above orbital plane
View from above orbital plane
View from above satellite
View from above satellite

Ground track
Ground track

The orbit data is extracted from the following two-line orbital elements,

1 29656U 06059A   14297.66996138 -.00000237  00000-0  00000+0 0  5278
2 29656 003.7726 065.6286 0005067 131.2976 223.0251 01.00271486 28784
Epoch (UTC): 24 October 2014 16:04:44
Eccentricity: 0.0005067
inclination: 3.7726°
perigee height: 35765 km
apogee height: 35807 km
right ascension of ascending node: 65.6286°
argument of perigee: 131.2976°
revolutions per day: 1.00271486
mean anomaly at epoch: 223.0251°
orbit number at epoch: 2878

The dashed part of the orbit path shows where the satellite is in the earth's shadow,  

DLR